Voltar ao catálogo

COSMOS 2431

GLONASS

AtivoNavegaçãoMEO
NORAD 32277·PAYLOAD·🇷🇺 Russia

Lançado Oct 26, 2007 de Baikonur Cosmodrome

Loading…

Próximas Passagens (próximas 24 horas)

TLE

EnvelhecendoSource: Space-Track

Época: Aug 29, 2026, 11:23 UTC

1 32277U 07052C   26241.47453440 -.00000023  00000-0  00000+0 0  9996
2 32277  65.5435 313.3877 0016360 177.4773 183.7679  2.13209302146784

Acompanhe COSMOS 2431 em tempo real com AllMySat

Download on the App Store